Location: Village de las Huertas
(35.3014°N, 106.4095°W)
Time: 08:59:50
(UTC+00:00)

PSLV R/B - Pass Details

Date: 29 October 2020
Orbit: 567 x 599 km, 98.2° (Epoch: 04 December)

Event Time Altitude Azimuth Distance (km) Brightness Sun altitude
Rises 12:18:07 0° 160° (SSE) 2,820 7.8 -14.2°
Reaches altitude 10° 12:20:16 10° 157° (SSE) 1,925 7.0 -13.7°
Maximum altitude 12:24:25 66° 75° (ENE) 654 4.4 -12.9°
Drops below altitude 10° 12:28:37 10° 354° (N) 1,945 6.5 -12.0°
Sets 12:30:48 0° 351° (N) 2,852 7.3 -11.6°
